World > North America > United States > Michigan

Hourly Scio, MI Regional Weather

Feedback E-mail the Weather

Quick WX

Scio, MI Weather Maps

°F °C°F °C
Scio Weather Map
UTC Time: 6/30/2022, 19:37
Your Time:

Scio, MI Regional Weather

Expires:202206302000;;453546
ASUS43 KDTX 301910
RWRMI 
MICHIGAN HOURLY REGIONAL WEATHER ROUNDUP
NATIONAL WEATHER SERVICE DETROIT/PONTIAC MI
300 PM EDT THU JUN 30 2022

NOTE: "FAIR" INDICATES FEW OR NO CLOUDS BELOW 12,000 FEET WITH NO
SIGNIFICANT WEATHER AND/OR OBSTRUCTION TO VISIBILITY.


MIZ047>049-052>055-059>063-066>070-074>076-081>083-302000-
SOUTHEAST LOWER MICHIGAN
  
CITY           SKY/WX    TMP DP  RH WIND       PRES   REMARKS
ADRIAN         SUNNY     88  51  28 SW15G26   30.07F                  
ALMA           PTSUNNY   88  56  34 S13G21    30.00F                  
ANN ARBOR      MOSUNNY   87  54  32 SW10G20   30.06F                  
BAD AXE        PTSUNNY   87  59  39 SW18G24   29.99F                  
CARO           PTSUNNY   87  60  39 SW15G21   29.99F                  
DETROIT CITY   MOSUNNY   90  55  30 S17G28    30.05F                  
DETROIT        PTSUNNY   90  54  29 SW18G28   30.06F                  
FLINT          PTSUNNY   88  60  38 S12G24    30.02F                  
GROSSE ILE     MOSUNNY   84  64  50 S13       30.06F                  
HILLSDALE      PTSUNNY   86  50  28 S12G21    30.07F                  
HOWELL         PTSUNNY   88  51  27 S14G22    30.05F                  

CITY           SKY/WX    TMP DP  RH WIND       PRES   REMARKS
JACKSON        MOSUNNY   90  52  27 S15G26    30.06F                  
LAMBERTVILLE   SUNNY     90  51  26 SW9       30.07F                  
LANSING        PTSUNNY   88  58  36 SW16G26   30.03F                  
LAPEER         PTSUNNY   88  53  30 SW14G24   30.03F                  
MASON          PTSUNNY   86  56  36 SW9G16    30.04F                  
MONROE         SUNNY     90  54  29 S14G23    30.05F                  
MT. CLEMENS    PTSUNNY   89  62  39 S16       30.02F                  
PONTIAC        CLOUDY    88  52  29 SW14G21   30.05F                  
PORT HOPE        N/A     87  33  14 SW13G22   29.95F                  
PORT HURON     SUNNY     88  59  37 S13G22    30.04F                  
TRI CITIES     PTSUNNY   87  63  44 SW16G26   29.98F                  
MIDLAND        PTSUNNY   88  60  39 SW18      29.97F                  
TROY           MOSUNNY   90  40  17 S15G22    30.07F                  
SAGINAW HB     CLOUDY    87  58  37 SW13G23   29.99F                  
$$

SKY/WX - Weather  TMP - Temperature  DP - Dew Point  RH - Humidity
WIND - Wind Direction/Speed PRES - Barometric Pressure VSB - Visibility
WCI - Wind Chill Index E13G22 Wind - East Wind 13 mph/Gusts of 22 mph

Trending Headlines

Scio Radar Loop



Scio Quick Facts


National Two Day Weather Forecast


E-mail the Scio Weather Forecast

Voice your opinion or tell us about page issues...